TimeCST,TemperatureF,Dew PointF,Humidity,Sea Level PressureIn,VisibilityMPH,Wind Direction,Wind SpeedMPH,Gust SpeedMPH,PrecipitationIn,Events,Conditions,WindDirDegrees,DateUTC
12:54 AM,30.9,27.0,85,30.40,10.0,Calm,Calm,-,N/A,,Clear,0,2012-11-16 06:54:00
1:54 AM,30.9,27.0,85,30.41,10.0,Calm,Calm,-,N/A,,Clear,0,2012-11-16 07:54:00
2:54 AM,28.9,26.1,89,30.41,10.0,Calm,Calm,-,N/A,,Clear,0,2012-11-16 08:54:00
3:54 AM,28.9,25.0,85,30.41,10.0,Calm,Calm,-,N/A,,Clear,0,2012-11-16 09:54:00
4:54 AM,28.0,25.0,88,30.42,10.0,West,3.5,-,N/A,,Clear,260,2012-11-16 10:54:00
5:54 AM,28.0,25.0,88,30.43,10.0,Calm,Calm,-,N/A,,Clear,0,2012-11-16 11:54:00
6:54 AM,27.0,24.1,89,30.45,10.0,Calm,Calm,-,N/A,,Clear,0,2012-11-16 12:54:00
7:54 AM,30.9,28.0,89,30.47,10.0,Calm,Calm,-,N/A,,Clear,0,2012-11-16 13:54:00
8:54 AM,37.9,32.0,79,30.48,10.0,Calm,Calm,-,N/A,,Clear,0,2012-11-16 14:54:00
9:54 AM,46.0,34.0,63,30.48,10.0,Calm,Calm,-,N/A,,Clear,0,2012-11-16 15:54:00
10:54 AM,53.1,30.9,43,30.46,10.0,Calm,Calm,-,N/A,,Clear,0,2012-11-16 16:54:00
11:54 AM,57.0,32.0,39,30.45,10.0,ENE,4.6,-,N/A,,Clear,60,2012-11-16 17:54:00
12:54 PM,57.9,30.9,36,30.44,10.0,East,4.6,-,N/A,,Clear,80,2012-11-16 18:54:00
1:54 PM,59.0,30.9,35,30.43,10.0,NE,4.6,-,N/A,,Clear,50,2012-11-16 19:54:00
2:54 PM,60.1,30.9,33,30.41,10.0,Calm,Calm,-,N/A,,Clear,0,2012-11-16 20:54:00
3:54 PM,57.0,33.1,40,30.43,10.0,NE,3.5,-,N/A,,Clear,50,2012-11-16 21:54:00
4:54 PM,48.9,33.1,54,30.42,10.0,Calm,Calm,-,N/A,,Clear,0,2012-11-16 22:54:00
5:54 PM,44.1,33.1,65,30.44,10.0,Calm,Calm,-,N/A,,Clear,0,2012-11-16 23:54:00
6:54 PM,41.0,32.0,70,30.45,10.0,Calm,Calm,-,N/A,,Clear,0,2012-11-17 00:54:00
7:54 PM,37.0,30.9,79,30.45,10.0,Calm,Calm,-,N/A,,Clear,0,2012-11-17 01:54:00
8:54 PM,35.1,30.0,82,30.46,10.0,Calm,Calm,-,N/A,,Clear,0,2012-11-17 02:54:00
9:54 PM,34.0,30.0,85,30.46,8.0,Calm,Calm,-,N/A,,Clear,0,2012-11-17 03:54:00
10:54 PM,33.1,28.9,85,30.47,9.0,Calm,Calm,-,N/A,,Clear,0,2012-11-17 04:54:00
11:54 PM,30.9,28.0,89,30.47,5.0,Calm,Calm,-,N/A,,Clear,0,2012-11-17 05:54:00